| time (UTC) | temp F | wind direction | speed knots | gust knots | rain 1hr in | rain 24hr in | rain mn in | humidity % | barometer mb |
| 20260506004638 | 50 | 219 | 1.7 | 1.7 | 0.00 | 0.00 | 0.00 | 82 | 1012.3 |
| 20260506004135 | 50 | 213 | 0.0 | 1.7 | 0.00 | 0.00 | 0.00 | 82 | 1012.2 |
| 20260506003632 | 50 | 13 | 0.0 | 1.7 | 0.00 | 0.00 | 0.00 | 81 | 1011.8 |
| 20260506003128 | 50 | 247 | 0.0 | 1.7 | 0.00 | 0.00 | 0.00 | 81 | 1012.0 |
| 20260506002619 | 51 | 21 | 0.9 | 1.7 | 0.00 | 0.00 | 0.00 | 81 | 1012.1 |
| 20260506002115 | 51 | 350 | 0.0 | 2.6 | 0.00 | 0.00 | 0.00 | 80 | 1012.0 |
| 20260506001611 | 51 | 28 | 0.0 | 2.6 | 0.00 | 0.00 | 0.00 | 80 | 1011.8 |
| 20260506001108 | 51 | 12 | 1.7 | 1.7 | 0.00 | 0.00 | 0.00 | 80 | 1011.9 |
| 20260506000606 | 51 | 333 | 0.0 | 1.7 | 0.00 | 0.00 | 0.00 | 80 | 1012.1 |
| 20260505235601 | 51 | 344 | 0.0 | 2.6 | 0.00 | 0.00 | 0.00 | 79 | 1011.9 |
| 20260505235057 | 51 | 18 | 0.9 | 2.6 | 0.00 | 0.00 | 0.00 | 78 | 1011.7 |
| 20260505234554 | 52 | 20 | 0.9 | 2.6 | 0.00 | 0.00 | 0.00 | 77 | 1011.8 |
| 20260505234051 | 52 | 17 | 0.9 | 1.7 | 0.00 | 0.00 | 0.00 | 77 | 1011.8 |
| 20260505233548 | 52 | 39 | 0.0 | 0.9 | 0.00 | 0.00 | 0.00 | 77 | 1012.0 |
| 20260505233045 | 52 | 31 | 0.0 | 0.9 | 0.00 | 0.00 | 0.00 | 77 | 1012.4 |
| 20260505232543 | 52 | 179 | 0.9 | 0.9 | 0.00 | 0.00 | 0.00 | 77 | 1012.6 |
| 20260505232040 | 52 | 164 | 0.0 | 0.9 | 0.00 | 0.00 | 0.00 | 76 | 1012.3 |
| 20260505231537 | 52 | 24 | 0.9 | 1.7 | 0.00 | 0.00 | 0.00 | 76 | 1012.2 |
| 20260505231037 | 52 | 260 | 1.7 | 1.7 | 0.00 | 0.00 | 0.00 | 76 | 1012.0 |
| 20260505230534 | 52 | 39 | 0.9 | 1.7 | 0.00 | 0.00 | 0.00 | 76 | 1011.4 |
| 20260505230030 | 52 | 20 | 0.9 | 2.6 | 0.00 | 0.00 | 0.00 | 75 | 1011.7 |
| 20260505225527 | 53 | 309 | 0.9 | 1.7 | 0.00 | 0.00 | 0.00 | 75 | 1011.7 |
| 20260505225022 | 53 | 15 | 0.0 | 0.9 | 0.00 | 0.00 | 0.00 | 75 | 1011.5 |
| 20260505224520 | 53 | 2 | 0.0 | 1.7 | 0.00 | 0.00 | 0.00 | 76 | 1011.6 |
| 20260505224017 | 53 | 18 | 1.7 | 1.7 | 0.00 | 0.00 | 0.00 | 75 | 1011.4 |
| 20260505223514 | 53 | 116 | 0.9 | 1.7 | 0.00 | 0.00 | 0.00 | 75 | 1011.6 |
| 20260505223010 | 53 | 351 | 3.5 | 7.0 | 0.00 | 0.00 | 0.00 | 75 | 1011.7 |
| 20260505222507 | 53 | 93 | 1.7 | 1.7 | 0.00 | 0.00 | 0.00 | 76 | 1011.3 |
| 20260505222002 | 53 | 5 | 0.0 | 1.7 | 0.00 | 0.00 | 0.00 | 76 | 1010.9 |
| 20260505221500 | 53 | 39 | 0.9 | 1.7 | 0.00 | 0.00 | 0.00 | 76 | 1011.1 |
| 20260505220957 | 53 | 184 | 0.9 | 1.7 | 0.00 | 0.00 | 0.00 | 75 | 1011.0 |
| 20260505220454 | 53 | 321 | 1.7 | 2.6 | 0.00 | 0.00 | 0.00 | 75 | 1011.2 |
| 20260505215951 | 54 | 16 | 0.0 | 2.6 | 0.00 | 0.00 | 0.00 | 75 | 1011.1 |
| 20260505215449 | 54 | 115 | 0.9 | 1.7 | 0.00 | 0.00 | 0.00 | 75 | 1011.0 |
| 20260505214947 | 54 | 16 | 0.9 | 0.9 | 0.00 | 0.00 | 0.00 | 74 | 1010.5 |
| 20260505214445 | 54 | 45 | 0.9 | 2.6 | 0.00 | 0.00 | 0.00 | 74 | 1010.4 |
| 20260505213942 | 54 | 347 | 0.0 | 1.7 | 0.00 | 0.00 | 0.00 | 75 | 1010.3 |
| 20260505213439 | 54 | 20 | 0.9 | 3.5 | 0.00 | 0.00 | 0.00 | 75 | 1010.5 |
| 20260505212935 | 55 | 17 | 0.9 | 2.6 | 0.00 | 0.00 | 0.00 | 74 | 1010.6 |
| 20260505212432 | 55 | 12 | 0.0 | 2.6 | 0.00 | 0.00 | 0.00 | 74 | 1010.8 |
| 20260505211928 | 55 | 318 | 0.9 | 2.6 | 0.00 | 0.00 | 0.00 | 74 | 1010.9 |
| 20260505211426 | 54 | 22 | 0.9 | 2.6 | 0.00 | 0.00 | 0.00 | 74 | 1010.1 |
| 20260505210922 | 55 | 346 | 1.7 | 2.6 | 0.00 | 0.00 | 0.00 | 73 | 1010.4 |
| 20260505210420 | 54 | 275 | 0.9 | 2.6 | 0.00 | 0.00 | 0.00 | 75 | 1010.0 |
| 20260505205916 | 54 | 280 | 1.7 | 2.6 | 0.00 | 0.00 | 0.00 | 75 | 1010.1 |
| 20260505205415 | 54 | 15 | 0.0 | 2.6 | 0.00 | 0.00 | 0.00 | 75 | 1010.5 |
| 20260505204911 | 54 | 10 | 0.0 | 1.7 | 0.00 | 0.00 | 0.00 | 75 | 1011.0 |
| 20260505204409 | 55 | 21 | 0.0 | 1.7 | 0.00 | 0.00 | 0.00 | 75 | 1011.4 |
| 20260505203906 | 55 | 45 | 0.9 | 1.7 | 0.00 | 0.00 | 0.00 | 76 | 1010.9 |
| 20260505203403 | 55 | 347 | 0.0 | 3.5 | 0.00 | 0.00 | 0.00 | 75 | 1010.4 |
| 20260505202859 | 55 | 28 | 0.9 | 1.7 | 0.00 | 0.00 | 0.00 | 75 | 1010.5 |
| 20260505202355 | 55 | 282 | 1.7 | 1.7 | 0.00 | 0.00 | 0.00 | 75 | 1010.2 |
| 20260505201852 | 55 | 38 | 0.9 | 1.7 | 0.00 | 0.00 | 0.00 | 75 | 1010.1 |
| 20260505201349 | 55 | 24 | 0.9 | 2.6 | 0.00 | 0.00 | 0.00 | 76 | 1009.9 |
| 20260505200847 | 55 | 28 | 1.7 | 5.2 | 0.00 | 0.00 | 0.00 | 76 | 1010.1 |
| 20260505200344 | 55 | 342 | 0.9 | 1.7 | 0.00 | 0.00 | 0.00 | 76 | 1010.2 |
| 20260505195840 | 55 | 24 | 0.0 | 1.7 | 0.00 | 0.00 | 0.00 | 77 | 1010.1 |
| 20260505195337 | 55 | 60 | 1.7 | 2.6 | 0.00 | 0.00 | 0.00 | 78 | 1010.1 |
| 20260505194834 | 55 | 11 | 1.7 | 2.6 | 0.00 | 0.00 | 0.00 | 78 | 1010.3 |
| 20260505194331 | 55 | 304 | 0.9 | 1.7 | 0.00 | 0.00 | 0.00 | 79 | 1010.0 |
| 20260505193826 | 55 | 287 | 0.0 | 3.5 | 0.00 | 0.00 | 0.00 | 79 | 1010.1 |
| 20260505193324 | 55 | 244 | 0.9 | 2.6 | 0.00 | 0.00 | 0.00 | 79 | 1009.9 |
| 20260505192822 | 55 | 236 | 1.7 | 2.6 | 0.00 | 0.00 | 0.00 | 80 | 1010.3 |
| 20260505192320 | 55 | 20 | 2.6 | 3.5 | 0.00 | 0.00 | 0.00 | 79 | 1009.9 |
| 20260505191817 | 55 | 336 | 1.7 | 2.6 | 0.00 | 0.00 | 0.00 | 80 | 1009.7 |
| 20260505191316 | 55 | 348 | 0.9 | 1.7 | 0.00 | 0.00 | 0.00 | 80 | 1010.0 |
| 20260505190812 | 55 | 21 | 0.9 | 1.7 | 0.00 | 0.00 | 0.00 | 81 | 1010.1 |
| 20260505190307 | 55 | 92 | 0.9 | 1.7 | 0.00 | 0.00 | 0.00 | 81 | 1010.1 |
| 20260505185803 | 55 | 0 | 0.9 | 3.5 | 0.00 | 0.00 | 0.00 | 81 | 1009.7 |
| 20260505185300 | 55 | 221 | 0.9 | 1.7 | 0.00 | 0.00 | 0.00 | 82 | 1009.9 |
| 20260505184756 | 55 | 99 | 0.9 | 2.6 | 0.00 | 0.00 | 0.00 | 81 | 1009.6 |
| 20260505184253 | 56 | 358 | 0.9 | 2.6 | 0.00 | 0.00 | 0.00 | 81 | 1009.9 |
| 20260505183750 | 56 | 323 | 0.0 | 2.6 | 0.00 | 0.00 | 0.00 | 81 | 1009.4 |
| 20260505183248 | 56 | 23 | 1.7 | 2.6 | 0.00 | 0.00 | 0.00 | 80 | 1009.9 |
| 20260505182744 | 56 | 79 | 0.0 | 0.9 | 0.00 | 0.00 | 0.00 | 80 | 1009.7 |
| 20260505182241 | 56 | 335 | 0.9 | 1.7 | 0.00 | 0.00 | 0.00 | 80 | 1009.5 |
| 20260505181737 | 57 | 313 | 0.9 | 2.6 | 0.00 | 0.00 | 0.00 | 79 | 1009.4 |
| 20260505181235 | 57 | 246 | 1.7 | 2.6 | 0.00 | 0.00 | 0.00 | 79 | 1009.3 |
| 20260505180731 | 57 | 29 | 0.0 | 1.7 | 0.00 | 0.00 | 0.00 | 80 | 1009.3 |
| 20260505180228 | 57 | 327 | 0.9 | 1.7 | 0.00 | 0.00 | 0.00 | 79 | 1009.3 |
| 20260505175724 | 58 | 290 | 0.9 | 1.7 | 0.00 | 0.00 | 0.00 | 79 | 1009.0 |
| 20260505175221 | 57 | 20 | 0.0 | 1.7 | 0.00 | 0.00 | 0.00 | 80 | 1008.6 |
| 20260505174717 | 57 | 344 | 0.0 | 1.7 | 0.00 | 0.00 | 0.00 | 80 | 1008.7 |
| 20260505174214 | 57 | 42 | 0.9 | 1.7 | 0.00 | 0.00 | 0.00 | 80 | 1008.8 |
| 20260505173710 | 57 | 236 | 0.9 | 2.6 | 0.00 | 0.00 | 0.00 | 81 | 1008.6 |
| 20260505173207 | 57 | 294 | 1.7 | 2.6 | 0.00 | 0.00 | 0.00 | 81 | 1008.9 |
| 20260505172704 | 57 | 352 | 0.9 | 1.7 | 0.00 | 0.00 | 0.00 | 81 | 1008.5 |
| 20260505172201 | 57 | 274 | 1.7 | 1.7 | 0.00 | 0.00 | 0.00 | 81 | 1008.7 |
| 20260505171701 | 57 | 32 | 1.7 | 3.5 | 0.00 | 0.00 | 0.00 | 82 | 1008.3 |
| 20260505171158 | 57 | 337 | 1.7 | 2.6 | 0.00 | 0.00 | 0.00 | 82 | 1008.3 |
| 20260505170655 | 57 | 26 | 0.0 | 2.6 | 0.00 | 0.00 | 0.00 | 83 | 1008.2 |
| 20260505170152 | 57 | 318 | 1.7 | 2.6 | 0.00 | 0.00 | 0.00 | 82 | 1008.3 |
| 20260505165652 | 57 | 60 | 0.9 | 5.2 | 0.00 | 0.00 | 0.00 | 83 | 1008.2 |
| 20260505165148 | 57 | 336 | 0.0 | 7.8 | 0.00 | 0.00 | 0.00 | 83 | 1008.0 |
| 20260505164644 | 57 | 11 | 0.9 | 2.6 | 0.00 | 0.00 | 0.00 | 83 | 1007.9 |
| 20260505164142 | 57 | 20 | 1.7 | 1.7 | 0.00 | 0.00 | 0.00 | 83 | 1007.7 |
| 20260505163640 | 57 | 14 | 0.9 | 2.6 | 0.00 | 0.00 | 0.00 | 84 | 1007.7 |
| 20260505163137 | 57 | 232 | 0.9 | 2.6 | 0.00 | 0.00 | 0.00 | 84 | 1007.4 |
| 20260505162634 | 57 | 8 | 1.7 | 5.2 | 0.00 | 0.00 | 0.00 | 84 | 1007.4 |
| 20260505162132 | 57 | 5 | 0.0 | 1.7 | 0.00 | 0.00 | 0.00 | 84 | 1007.1 |
| 20260505161629 | 58 | 18 | 1.7 | 2.6 | 0.00 | 0.00 | 0.00 | 84 | 1007.0 |
| 20260505161126 | 58 | 28 | 0.9 | 6.1 | 0.00 | 0.00 | 0.00 | 84 | 1006.6 |
| 20260505160624 | 58 | 358 | 1.7 | 2.6 | 0.00 | 0.00 | 0.00 | 84 | 1006.3 |
| 20260505160121 | 59 | 0 | 0.9 | 1.7 | 0.00 | 0.00 | 0.00 | 84 | 1006.3 |
| 20260505153101 | 61 | 353 | 1.7 | 2.6 | 0.00 | 0.00 | 0.00 | 85 | 1005.8 |
| 20260505152557 | 61 | 254 | 0.9 | 1.7 | 0.00 | 0.00 | 0.00 | 85 | 1005.7 |
| 20260505152053 | 62 | 14 | 1.7 | 2.6 | 0.00 | 0.00 | 0.00 | 85 | 1005.5 |
| 20260505151548 | 62 | 343 | 1.7 | 1.7 | 0.00 | 0.00 | 0.00 | 84 | 1005.1 |
| 20260505151046 | 63 | 2 | 1.7 | 6.1 | 0.00 | 0.00 | 0.00 | 84 | 1005.0 |
| 20260505150542 | 64 | 10 | 0.9 | 2.6 | 0.00 | 0.00 | 0.00 | 83 | 1004.8 |
| 20260505140508 | 69 | 41 | 0.0 | 0.9 | 0.00 | 0.00 | 0.00 | 86 | 1003.3 |
| 20260505124921 | 68 | 63 | 0.9 | 1.7 | 0.00 | 0.00 | 0.00 | 86 | 1003.1 |
| 20260505124418 | 68 | 353 | 0.0 | 0.0 | 0.00 | 0.00 | 0.00 | 85 | 1003.1 |
| 20260505123914 | 68 | 30 | 0.9 | 0.9 | 0.00 | 0.00 | 0.00 | 85 | 1002.8 |
| 20260505123411 | 68 | 52 | 0.0 | 0.9 | 0.00 | 0.00 | 0.00 | 85 | 1003.0 |
| 20260505122906 | 68 | 57 | 0.0 | 0.9 | 0.00 | 0.00 | 0.00 | 85 | 1002.9 |
| 20260505122404 | 68 | 30 | 0.0 | 0.0 | 0.00 | 0.00 | 0.00 | 85 | 1002.9 |
| 20260505121900 | 68 | 30 | 0.0 | 0.0 | 0.00 | 0.00 | 0.00 | 85 | 1002.7 |
| 20260505121358 | 68 | 30 | 0.0 | 0.0 | 0.00 | 0.00 | 0.00 | 85 | 1002.6 |
| 20260505120853 | 68 | 30 | 0.0 | 0.0 | 0.00 | 0.00 | 0.00 | 84 | 1002.6 |
| 20260505120350 | 68 | 30 | 0.0 | 0.0 | 0.00 | 0.00 | 0.00 | 83 | 1002.3 |
| 20260505115848 | 68 | 30 | 0.0 | 0.0 | 0.00 | 0.00 | 0.00 | 83 | 1002.5 |
| 20260505115346 | 68 | 30 | 0.0 | 0.0 | 0.00 | 0.00 | 0.00 | 82 | 1002.6 |
| 20260505114844 | 69 | 30 | 0.0 | 0.0 | 0.00 | 0.00 | 0.00 | 82 | 1002.2 |
| 20260505114340 | 69 | 30 | 0.0 | 0.0 | 0.00 | 0.00 | 0.00 | 81 | 1002.1 |
| 20260505113836 | 69 | 30 | 0.0 | 0.0 | 0.00 | 0.00 | 0.00 | 81 | 1002.1 |
| 20260505113333 | 70 | 30 | 0.0 | 0.0 | 0.00 | 0.00 | 0.00 | 80 | 1001.8 |
| 20260505112829 | 70 | 30 | 0.0 | 0.0 | 0.00 | 0.00 | 0.00 | 79 | 1001.8 |
| 20260505112326 | 70 | 30 | 0.0 | 0.0 | 0.00 | 0.00 | 0.00 | 78 | 1001.5 |
| 20260505111822 | 70 | 30 | 0.0 | 0.9 | 0.00 | 0.00 | 0.00 | 78 | 1001.3 |
| 20260505111317 | 70 | 249 | 0.0 | 0.9 | 0.00 | 0.00 | 0.00 | 78 | 1001.1 |
| 20260505110814 | 71 | 68 | 0.0 | 0.0 | 0.00 | 0.00 | 0.00 | 77 | 1001.3 |
| 20260505110311 | 71 | 254 | 0.9 | 2.6 | 0.00 | 0.00 | 0.00 | 76 | 1001.3 |
| 20260505101746 | 72 | 102 | 1.7 | 6.1 | 0.00 | 0.00 | 0.00 | 75 | 1000.2 |
| 20260505101241 | 72 | 179 | 1.7 | 5.2 | 0.00 | 0.00 | 0.00 | 75 | 1000.0 |
| 20260505100738 | 72 | 272 | 1.7 | 2.6 | 0.00 | 0.00 | 0.00 | 75 | 1000.1 |
| 20260505100234 | 72 | 243 | 1.7 | 3.5 | 0.00 | 0.00 | 0.00 | 75 | 1000.1 |
| 20260505095730 | 72 | 53 | 1.7 | 7.0 | 0.00 | 0.00 | 0.00 | 75 | 999.9 |
| 20260505095228 | 72 | 22 | 0.9 | 5.2 | 0.00 | 0.00 | 0.00 | 75 | 999.9 |
| 20260505094723 | 73 | 27 | 1.7 | 3.5 | 0.00 | 0.00 | 0.00 | 75 | 1000.2 |
| 20260505094220 | 73 | 122 | 2.6 | 7.8 | 0.00 | 0.00 | 0.00 | 75 | 1000.0 |
| 20260505093716 | 73 | 254 | 2.6 | 6.1 | 0.00 | 0.00 | 0.00 | 75 | 1000.2 |
| 20260505093214 | 73 | 207 | 1.7 | 6.1 | 0.00 | 0.00 | 0.00 | 75 | 999.9 |
| 20260505092710 | 72 | 155 | 1.7 | 7.8 | 0.00 | 0.00 | 0.00 | 75 | 999.9 |
| 20260505092210 | 73 | 227 | 0.9 | 7.8 | 0.00 | 0.00 | 0.00 | 75 | 1000.0 |
| 20260505091706 | 73 | 213 | 3.5 | 7.0 | 0.00 | 0.00 | 0.00 | 75 | 1000.0 |
| 20260505091204 | 73 | 144 | 1.7 | 3.5 | 0.00 | 0.00 | 0.00 | 75 | 1000.1 |
| 20260505090701 | 73 | 263 | 1.7 | 7.8 | 0.00 | 0.00 | 0.00 | 75 | 1000.1 |
| 20260505090159 | 73 | 252 | 2.6 | 5.2 | 0.00 | 0.00 | 0.00 | 75 | 1000.2 |
| 20260505085657 | 73 | 174 | 1.7 | 3.5 | 0.00 | 0.00 | 0.00 | 75 | 1000.1 |
| 20260505085155 | 73 | 200 | 0.9 | 8.7 | 0.00 | 0.00 | 0.00 | 75 | 1000.3 |
| 20260505084652 | 73 | 288 | 2.6 | 5.2 | 0.00 | 0.00 | 0.00 | 75 | 1000.4 |
| 20260505084151 | 73 | 138 | 2.6 | 7.0 | 0.00 | 0.00 | 0.00 | 75 | 1000.4 |
| 20260505083647 | 73 | 299 | 0.9 | 3.5 | 0.00 | 0.00 | 0.00 | 75 | 1000.6 |
| 20260505083144 | 73 | 299 | 2.6 | 6.1 | 0.00 | 0.00 | 0.00 | 75 | 1000.6 |
| 20260505082640 | 73 | 312 | 1.7 | 6.1 | 0.00 | 0.00 | 0.00 | 75 | 1000.6 |
| 20260505082137 | 73 | 327 | 1.7 | 5.2 | 0.00 | 0.00 | 0.00 | 75 | 1000.7 |
| 20260505081633 | 73 | 233 | 3.5 | 8.7 | 0.00 | 0.00 | 0.00 | 75 | 1000.8 |
| 20260505081131 | 73 | 275 | 1.7 | 7.0 | 0.00 | 0.00 | 0.00 | 75 | 1000.7 |
| 20260505080627 | 73 | 71 | 1.7 | 6.1 | 0.00 | 0.00 | 0.00 | 75 | 1000.8 |
| 20260505080123 | 73 | 259 | 2.6 | 6.1 | 0.00 | 0.00 | 0.00 | 75 | 1000.8 |
| 20260505075620 | 73 | 241 | 1.7 | 5.2 | 0.00 | 0.00 | 0.00 | 75 | 1000.7 |
| 20260505075116 | 73 | 265 | 3.5 | 8.7 | 0.00 | 0.00 | 0.00 | 75 | 1001.0 |
| 20260505074613 | 73 | 257 | 3.5 | 6.1 | 0.00 | 0.00 | 0.00 | 75 | 1001.0 |
| 20260505074110 | 73 | 146 | 0.9 | 3.5 | 0.00 | 0.00 | 0.00 | 75 | 1000.9 |
| 20260505073608 | 73 | 266 | 3.5 | 6.1 | 0.00 | 0.00 | 0.00 | 75 | 1001.1 |
| 20260505073106 | 73 | 245 | 3.5 | 6.1 | 0.00 | 0.00 | 0.00 | 75 | 1001.0 |
| 20260505072601 | 73 | 338 | 3.5 | 11.3 | 0.00 | 0.00 | 0.00 | 74 | 1001.2 |
| 20260505072058 | 73 | 247 | 0.9 | 7.8 | 0.00 | 0.00 | 0.00 | 74 | 1001.1 |
| 20260505071559 | 73 | 170 | 6.1 | 8.7 | 0.00 | 0.00 | 0.00 | 74 | 1001.4 |
| 20260505071057 | 73 | 180 | 0.0 | 6.1 | 0.00 | 0.00 | 0.00 | 75 | 1001.4 |
| 20260505070554 | 73 | 171 | 2.6 | 6.1 | 0.00 | 0.00 | 0.00 | 74 | 1001.4 |
| 20260505070050 | 73 | 259 | 1.7 | 9.6 | 0.00 | 0.00 | 0.00 | 74 | 1001.6 |
| 20260505065546 | 73 | 334 | 4.3 | 7.8 | 0.00 | 0.00 | 0.00 | 74 | 1001.5 |
| 20260505065043 | 73 | 183 | 1.7 | 7.0 | 0.00 | 0.00 | 0.00 | 74 | 1001.6 |
| 20260505064539 | 73 | 135 | 1.7 | 6.1 | 0.00 | 0.00 | 0.00 | 74 | 1001.6 |
| 20260505064038 | 73 | 112 | 2.6 | 7.0 | 0.00 | 0.00 | 0.00 | 74 | 1001.8 |
| 20260505063535 | 73 | 102 | 1.7 | 7.0 | 0.00 | 0.00 | 0.00 | 74 | 1001.8 |
| 20260505063031 | 73 | 317 | 1.7 | 8.7 | 0.00 | 0.00 | 0.00 | 74 | 1001.8 |
| 20260505062528 | 73 | 124 | 0.9 | 3.5 | 0.00 | 0.00 | 0.00 | 74 | 1001.8 |
| 20260505062025 | 73 | 108 | 3.5 | 5.2 | 0.00 | 0.00 | 0.00 | 74 | 1001.9 |
| 20260505061522 | 73 | 7 | 3.5 | 5.2 | 0.00 | 0.00 | 0.00 | 74 | 1001.8 |
| 20260505061020 | 73 | 288 | 3.5 | 7.0 | 0.00 | 0.00 | 0.00 | 74 | 1001.7 |
| 20260505060517 | 73 | 134 | 4.3 | 7.8 | 0.00 | 0.00 | 0.00 | 73 | 1001.9 |
| 20260505060014 | 73 | 217 | 3.5 | 3.5 | 0.00 | 0.00 | 0.00 | 74 | 1002.0 |
| 20260505055509 | 73 | 168 | 5.2 | 7.0 | 0.00 | 0.00 | 0.00 | 73 | 1002.3 |
| 20260505055006 | 73 | 305 | 3.5 | 7.8 | 0.00 | 0.00 | 0.00 | 73 | 1002.3 |
| 20260505054504 | 73 | 249 | 0.9 | 5.2 | 0.00 | 0.00 | 0.00 | 73 | 1002.2 |
| 20260505054001 | 73 | 236 | 1.7 | 5.2 | 0.00 | 0.00 | 0.00 | 73 | 1002.4 |
| 20260505053458 | 73 | 148 | 3.5 | 7.0 | 0.00 | 0.00 | 0.00 | 73 | 1002.3 |
| 20260505052955 | 74 | 274 | 0.9 | 3.5 | 0.00 | 0.00 | 0.00 | 73 | 1002.3 |
| 20260505052452 | 74 | 222 | 1.7 | 7.0 | 0.00 | 0.00 | 0.00 | 72 | 1002.3 |
| 20260505051949 | 74 | 237 | 2.6 | 7.0 | 0.00 | 0.00 | 0.00 | 72 | 1002.2 |
| 20260505051446 | 74 | 92 | 0.9 | 7.8 | 0.00 | 0.00 | 0.00 | 72 | 1002.3 |
| 20260505050944 | 74 | 119 | 3.5 | 7.0 | 0.00 | 0.00 | 0.00 | 72 | 1002.6 |
| 20260505050442 | 74 | 226 | 3.5 | 12.2 | 0.00 | 0.00 | 0.00 | 72 | 1002.6 |
| 20260505041410 | 74 | 318 | 3.5 | 5.2 | 0.00 | 0.00 | 0.00 | 71 | 1003.0 |
| 20260505040907 | 75 | 175 | 2.6 | 6.1 | 0.00 | 0.00 | 0.00 | 71 | 1003.1 |
| 20260505040405 | 75 | 68 | 2.6 | 9.6 | 0.00 | 0.00 | 0.00 | 70 | 1003.2 |
| 20260505035901 | 75 | 242 | 3.5 | 7.8 | 0.00 | 0.00 | 0.00 | 70 | 1003.1 |
| 20260505035357 | 75 | 108 | 3.5 | 11.3 | 0.00 | 0.00 | 0.00 | 70 | 1003.1 |
| 20260505034854 | 75 | 246 | 1.7 | 3.5 | 0.00 | 0.00 | 0.00 | 70 | 1003.1 |
| 20260505034351 | 75 | 347 | 1.7 | 7.0 | 0.00 | 0.00 | 0.00 | 69 | 1002.9 |
| 20260505033848 | 75 | 242 | 0.9 | 7.0 | 0.00 | 0.00 | 0.00 | 69 | 1003.0 |
| 20260505033345 | 75 | 258 | 3.5 | 8.7 | 0.00 | 0.00 | 0.00 | 69 | 1002.7 |
| 20260505032843 | 75 | 270 | 3.5 | 7.8 | 0.00 | 0.00 | 0.00 | 69 | 1002.8 |
| 20260505032339 | 76 | 242 | 1.7 | 8.7 | 0.00 | 0.00 | 0.00 | 69 | 1002.7 |
| 20260505031836 | 76 | 190 | 2.6 | 5.2 | 0.00 | 0.00 | 0.00 | 68 | 1002.7 |
| 20260505031333 | 76 | 308 | 1.7 | 6.1 | 0.00 | 0.00 | 0.00 | 68 | 1002.6 |
| 20260505030830 | 76 | 264 | 3.5 | 9.6 | 0.00 | 0.00 | 0.00 | 68 | 1002.8 |
| 20260505030326 | 76 | 180 | 1.7 | 7.0 | 0.00 | 0.00 | 0.00 | 68 | 1002.7 |
| 20260505025822 | 76 | 122 | 2.6 | 9.6 | 0.00 | 0.00 | 0.00 | 67 | 1002.8 |
| 20260505025320 | 76 | 91 | 3.5 | 7.0 | 0.00 | 0.00 | 0.00 | 67 | 1002.6 |
| 20260505024818 | 76 | 287 | 6.1 | 7.8 | 0.00 | 0.00 | 0.00 | 67 | 1002.6 |
| 20260505024315 | 76 | 280 | 2.6 | 5.2 | 0.00 | 0.00 | 0.00 | 66 | 1002.2 |
| 20260505023812 | 76 | 239 | 3.5 | 11.3 | 0.00 | 0.00 | 0.00 | 66 | 1002.5 |
| 20260505023309 | 76 | 265 | 3.5 | 12.2 | 0.00 | 0.00 | 0.00 | 66 | 1002.5 |
| 20260505022806 | 76 | 197 | 3.5 | 7.8 | 0.00 | 0.00 | 0.00 | 66 | 1002.4 |
| 20260505022304 | 77 | 66 | 4.3 | 7.8 | 0.00 | 0.00 | 0.00 | 66 | 1002.4 |
| 20260505021800 | 77 | 288 | 6.1 | 11.3 | 0.00 | 0.00 | 0.00 | 66 | 1002.3 |
| 20260505021257 | 77 | 77 | 2.6 | 5.2 | 0.00 | 0.00 | 0.00 | 66 | 1002.1 |
| 20260505020753 | 77 | 259 | 2.6 | 7.8 | 0.00 | 0.00 | 0.00 | 65 | 1002.3 |
| 20260505020248 | 77 | 49 | 1.7 | 5.2 | 0.00 | 0.00 | 0.00 | 65 | 1002.2 |
| 20260505015746 | 77 | 207 | 1.7 | 6.1 | 0.00 | 0.00 | 0.00 | 64 | 1002.3 |
| 20260505015242 | 78 | 298 | 4.3 | 7.0 | 0.00 | 0.00 | 0.00 | 64 | 1002.5 |
| 20260505014739 | 78 | 47 | 2.6 | 12.2 | 0.00 | 0.00 | 0.00 | 63 | 1002.3 |
| 20260505014237 | 78 | 227 | 4.3 | 6.1 | 0.00 | 0.00 | 0.00 | 63 | 1002.3 |
| 20260505013733 | 78 | 260 | 7.0 | 14.8 | 0.00 | 0.00 | 0.00 | 62 | 1002.6 |
| 20260505013230 | 78 | 106 | 0.9 | 7.0 | 0.00 | 0.00 | 0.00 | 62 | 1002.4 |
| 20260505012729 | 78 | 214 | 2.6 | 6.1 | 0.00 | 0.00 | 0.00 | 62 | 1002.2 |
| 20260505012225 | 78 | 224 | 4.3 | 8.7 | 0.00 | 0.00 | 0.00 | 62 | 1002.3 |
| 20260505011721 | 78 | 246 | 5.2 | 7.0 | 0.00 | 0.00 | 0.00 | 62 | 1002.3 |
| 20260505011219 | 78 | 101 | 1.7 | 8.7 | 0.00 | 0.00 | 0.00 | 62 | 1002.4 |
| 20260505010714 | 78 | 134 | 1.7 | 5.2 | 0.00 | 0.00 | 0.00 | 62 | 1002.5 |
| 20260505010211 | 79 | 219 | 3.5 | 7.0 | 0.00 | 0.00 | 0.00 | 61 | 1002.6 |
| 20260505005707 | 79 | 274 | 0.9 | 7.8 | 0.00 | 0.00 | 0.00 | 61 | 1002.6 |
| 20260505005204 | 79 | 250 | 1.7 | 6.1 | 0.00 | 0.00 | 0.00 | 61 | 1002.8 |